FW9696 Weather Reports


time (UTC)temp
F
wind
direction
speed
knots
gust
knots
rain 1hr
in
rain 24hr
in
rain mn
in
humidity
%
barometer
mb
20260506212046 48 0 0.0 2.6 0.00 0.60 0.57 96 1005.4
20260506211608 48 75 0.9 2.6 0.01 0.60 0.57 96 1005.5
20260506211046 48 0 0.0 2.6 0.01 0.60 0.57 96 1005.4
20260506210545 48 0 0.9 2.6 0.03 0.60 0.57 96 1005.4
20260506205545 49 22 0.9 5.2 0.03 0.74 0.57 96 1005.1
20260506205044 49 352 1.7 5.2 0.04 0.74 0.57 96 1005.2
20260506204556 49 331 0.0 3.5 0.04 0.74 0.57 96 1005.1
20260506204046 49 0 0.0 4.3 0.05 0.74 0.57 96 1005.0
20260506203548 50 355 0.9 4.3 0.05 0.74 0.57 96 1004.9
20260506203054 50 0 0.9 3.5 0.06 0.74 0.57 96 1004.9
20260506202547 50 62 0.0 3.5 0.06 0.74 0.57 96 1004.9
20260506202049 50 81 0.0 2.6 0.07 0.74 0.57 96 1004.9
20260506201601 51 0 0.0 2.6 0.07 0.73 0.56 96 1004.9
20260506201048 51 0 0.9 3.5 0.07 0.73 0.56 96 1004.9
20260506200546 51 0 0.9 3.5 0.05 0.71 0.54 96 1004.9
20260506200059 51 51 1.7 3.5 0.05 0.71 0.54 96 1004.7
20260506195547 52 28 0.9 5.2 0.05 0.71 0.54 96 1004.7
20260506195046 52 77 0.0 5.2 0.05 0.70 0.52 96 1004.6
20260506194602 53 71 1.7 4.3 0.05 0.70 0.52 96 1004.6
20260506194046 54 0 0.9 4.3 0.05 0.69 0.52 96 1004.5
20260506193547 55 42 1.7 4.3 0.05 0.69 0.52 96 1004.5
20260506193049 56 15 1.7 4.3 0.05 0.68 0.51 96 1004.5
20260506192551 57 132 0.0 2.6 0.05 0.68 0.51 96 1004.4
20260506192045 58 0 0.0 1.7 0.04 0.67 0.50 97 1004.4
20260506191551 58 0 0.0 1.7 0.03 0.66 0.49 97 1004.3
20260506191047 59 0 0.0 1.7 0.03 0.66 0.49 97 1004.5
20260506190550 58 0 0.0 1.7 0.03 0.66 0.49 97 1004.5
20260506190054 58 240 0.0 1.7 0.04 0.66 0.49 97 1004.6
20260506185546 58 0 0.0 2.6 0.04 0.66 0.49 97 1004.6
20260506185049 58 0 0.9 2.6 0.04 0.65 0.48 97 1004.6
20260506184604 58 0 0.0 1.7 0.05 0.65 0.48 97 1004.6
20260506184047 58 0 0.0 1.7 0.05 0.64 0.47 97 1004.7
20260506183546 58 0 0.0 1.7 0.06 0.64 0.47 97 1004.5
20260506183100 58 0 0.0 1.7 0.06 0.63 0.46 97 1004.5
20260506182545 58 0 0.0 1.7 0.06 0.63 0.46 97 1004.6
20260506182047 59 0 0.0 0.9 0.07 0.63 0.46 98 1004.6
20260506181549 58 0 0.0 1.7 0.08 0.63 0.46 97 1004.7
20260506181046 57 0 0.0 1.7 0.09 0.63 0.46 97 1004.7
20260506180547 57 0 0.0 1.7 0.10 0.63 0.46 97 1004.9
20260506180054 57 0 0.0 1.7 0.10 0.62 0.45 97 1005.0
20260506175545 57 36 0.0 2.6 0.11 0.62 0.45 97 1004.9
20260506175045 57 0 0.0 2.6 0.10 0.61 0.44 97 1005.1
20260506174552 57 352 0.0 2.6 0.10 0.60 0.43 97 1005.2
20260506174045 57 0 0.0 1.7 0.10 0.58 0.42 97 1005.3
20260506173547 56 0 0.0 1.7 0.09 0.58 0.41 97 1005.3
20260506173053 57 0 0.9 1.7 0.10 0.57 0.40 97 1005.3
20260506172549 56 0 0.0 1.7 0.12 0.57 0.40 97 1005.5
20260506172046 56 0 0.0 2.6 0.12 0.56 0.39 97 1005.5
20260506171553 56 321 0.0 2.6 0.12 0.55 0.38 97 1005.6
20260506171050 56 336 0.9 2.6 0.11 0.54 0.37 97 1005.5
20260506170545 56 0 0.0 1.7 0.11 0.52 0.36 97 1005.6
20260506170107 56 334 0.0 1.7 0.11 0.52 0.35 97 1005.6
20260506165548 56 334 0.0 1.7 0.10 0.51 0.34 97 1005.6
20260506165048 56 0 0.0 0.9 0.11 0.51 0.34 97 1005.5
20260506164551 56 0 0.0 1.7 0.10 0.50 0.33 97 1005.7
20260506164046 56 0 0.0 2.6 0.10 0.49 0.32 97 1005.7
20260506163545 56 334 0.0 2.6 0.10 0.49 0.32 97 1005.8
20260506163102 56 334 0.0 1.7 0.08 0.47 0.30 97 1005.8
20260506162545 56 0 0.0 1.7 0.07 0.45 0.28 97 1005.8
20260506162045 56 0 0.0 1.7 0.06 0.44 0.27 97 1005.8
20260506161551 56 0 0.0 1.7 0.06 0.43 0.26 97 1006.0
20260506161045 56 0 0.0 1.7 0.06 0.43 0.26 97 1006.1
20260506160545 56 0 0.0 1.7 0.06 0.42 0.25 97 1006.2
20260506160053 56 319 0.0 1.7 0.05 0.41 0.24 97 1006.3
20260506155545 56 0 0.0 1.7 0.06 0.41 0.24 97 1006.3
20260506155048 55 0 0.0 0.9 0.06 0.40 0.23 97 1006.4
20260506154559 55 0 0.0 0.9 0.06 0.40 0.23 97 1006.5
20260506154046 55 0 0.0 0.9 0.06 0.39 0.22 97 1006.4
20260506153546 55 0 0.0 1.7 0.06 0.39 0.22 97 1006.7
20260506153058 55 0 0.0 1.7 0.06 0.39 0.22 97 1006.7
20260506152545 55 0 0.0 2.6 0.05 0.38 0.21 97 1006.8
20260506152046 55 0 0.0 2.6 0.06 0.38 0.21 97 1006.8
20260506151609 55 355 0.0 1.7 0.05 0.37 0.20 97 1006.8
20260506151048 55 355 0.0 1.7 0.05 0.37 0.20 97 1006.8
20260506150545 55 0 0.0 0.9 0.04 0.36 0.19 98 1007.0
20260506150100 55 355 0.0 0.9 0.05 0.36 0.19 97 1007.1
20260506145546 55 0 0.0 1.7 0.04 0.34 0.17 97 1007.1
20260506145049 55 355 0.0 1.7 0.04 0.34 0.17 97 1007.2
20260506144605 55 0 0.0 1.7 0.05 0.34 0.17 97 1007.2
20260506144047 54 0 0.0 1.7 0.04 0.33 0.16 97 1007.2
20260506143547 54 355 0.0 1.7 0.04 0.33 0.16 97 1007.2
20260506143109 55 355 0.0 1.7 0.04 0.33 0.16 98 1007.1
20260506142545 55 355 0.0 1.7 0.04 0.33 0.16 98 1007.2
20260506142045 54 0 0.0 1.7 0.04 0.32 0.15 98 1007.2
20260506141600 54 0 0.0 0.9 0.04 0.32 0.15 98 1007.1
20260506141046 55 0 0.0 0.9 0.04 0.32 0.15 98 1007.2
20260506140549 55 0 0.0 0.9 0.03 0.31 0.14 98 1007.1
20260506140056 54 0 0.0 0.9 0.04 0.31 0.14 98 1007.2
20260506135545 54 355 0.0 0.9 0.03 0.30 0.13 98 1007.3
20260506135045 54 0 0.0 0.9 0.03 0.30 0.13 98 1007.2
20260506134553 54 0 0.0 2.6 0.03 0.29 0.12 98 1007.3
20260506134046 54 0 0.0 2.6 0.03 0.29 0.12 98 1007.1
20260506133545 54 328 0.0 2.6 0.03 0.29 0.12 98 1007.2
20260506133052 54 0 0.0 2.6 0.03 0.29 0.12 98 1007.2
20260506132545 54 55 0.9 2.6 0.03 0.29 0.12 98 1007.3
20260506132051 54 62 0.0 0.9 0.02 0.28 0.11 98 1007.4
20260506131555 54 0 0.0 0.9 0.02 0.28 0.11 98 1007.4
20260506131050 54 61 0.0 0.9 0.03 0.28 0.11 98 1007.4
20260506130546 54 0 0.0 0.9 0.03 0.28 0.11 98 1007.6
20260506125550 54 0 0.0 0.9 0.02 0.27 0.10 98 1007.7
20260506125045 54 0 0.0 0.9 0.02 0.27 0.10 98 1007.8
20260506124549 54 0 0.0 0.9 0.01 0.26 0.09 98 1007.7
20260506124045 54 0 0.0 0.9 0.01 0.26 0.09 98 1007.7
20260506123545 54 61 0.0 0.9 0.01 0.26 0.09 98 1007.7
20260506123049 54 0 0.0 0.9 0.01 0.26 0.09 98 1007.7
20260506122546 54 0 0.0 0.9 0.01 0.26 0.09 98 1007.8
20260506122045 54 61 0.0 1.7 0.01 0.26 0.09 98 1007.8
20260506121552 53 0 0.0 1.7 0.01 0.26 0.09 98 1007.8
20260506121045 53 0 0.0 1.7 0.00 0.25 0.08 98 1007.9
20260506120545 54 0 0.0 1.7 0.00 0.25 0.08 98 1007.8
20260506120052 54 0 0.0 1.7 0.00 0.25 0.08 98 1007.8
20260506115545 53 0 0.0 0.9 0.00 0.25 0.08 98 1007.9
20260506115045 53 0 0.0 0.9 0.00 0.25 0.08 98 1008.2
20260506114551 53 0 0.0 0.0 0.00 0.25 0.08 98 1008.0
20260506114045 53 0 0.0 0.0 0.00 0.25 0.08 98 1008.0
20260506113546 53 0 0.0 0.0 0.00 0.25 0.08 98 1008.0
20260506113048 53 0 0.0 0.9 0.00 0.25 0.08 98 1008.0
20260506112545 53 0 0.0 0.9 0.00 0.25 0.08 98 1007.9
20260506112045 53 313 0.0 0.9 0.00 0.25 0.08 98 1007.9
20260506111550 53 0 0.0 1.7 0.00 0.25 0.08 98 1007.8
20260506111045 53 0 0.0 1.7 0.00 0.25 0.08 98 1007.8
20260506110548 53 0 0.0 1.7 0.00 0.25 0.08 98 1007.8
20260506110049 53 0 0.0 0.9 0.00 0.25 0.08 98 1007.7
20260506105545 53 313 0.0 0.9 0.00 0.25 0.08 98 1007.8
20260506105046 53 0 0.0 0.9 0.00 0.25 0.08 98 1007.9
20260506104550 53 0 0.0 0.9 0.00 0.25 0.08 98 1007.8
20260506104045 52 0 0.0 0.9 0.00 0.25 0.08 98 1008.0
20260506103547 52 0 0.0 0.9 0.00 0.25 0.08 98 1007.9
20260506103054 52 0 0.0 0.9 0.00 0.25 0.08 98 1007.8
20260506102546 52 0 0.0 0.9 0.00 0.25 0.08 98 1007.9
20260506102046 52 0 0.0 1.7 0.00 0.25 0.08 98 1008.0
20260506101549 52 0 0.0 1.7 0.00 0.25 0.08 97 1008.0
20260506101045 52 0 0.0 1.7 0.00 0.25 0.08 97 1008.0
20260506100545 52 0 0.0 1.7 0.00 0.25 0.08 98 1007.8
20260506100050 52 313 0.0 1.7 0.00 0.25 0.08 98 1007.8
20260506095546 52 0 0.0 0.0 0.00 0.25 0.08 98 1007.8
20260506095046 52 0 0.0 0.0 0.00 0.25 0.08 98 1007.9
20260506094548 52 0 0.0 0.0 0.00 0.25 0.08 97 1008.0
20260506094046 52 0 0.0 0.9 0.00 0.25 0.08 98 1008.1
20260506093545 52 0 0.0 1.7 0.00 0.25 0.08 97 1008.2
20260506093051 52 0 0.0 1.7 0.00 0.25 0.08 98 1008.0
20260506092546 52 313 0.0 1.7 0.00 0.25 0.08 97 1008.0
20260506092045 52 313 0.0 1.7 0.00 0.25 0.08 97 1008.0
20260506091550 52 0 0.0 0.0 0.00 0.25 0.08 97 1008.1
20260506091044 52 0 0.0 0.0 0.00 0.25 0.08 97 1008.1
20260506090545 52 0 0.0 0.0 0.00 0.25 0.08 97 1008.1
20260506090058 52 0 0.0 0.0 0.00 0.25 0.08 97 1008.1
20260506085545 52 0 0.0 0.0 0.00 0.25 0.08 97 1008.4
20260506085045 53 0 0.0 0.9 0.00 0.25 0.08 97 1008.2
20260506084601 53 0 0.0 0.9 0.00 0.25 0.08 97 1008.4
20260506084045 53 0 0.0 0.9 0.00 0.25 0.08 97 1008.2
20260506083546 53 313 0.0 1.7 0.00 0.25 0.08 97 1008.5
20260506083047 53 0 0.0 1.7 0.00 0.25 0.08 97 1008.3
20260506082545 53 0 0.0 1.7 0.00 0.25 0.08 97 1008.4
20260506082045 53 0 0.0 1.7 0.00 0.25 0.08 97 1008.4
20260506081551 53 0 0.0 1.7 0.00 0.25 0.08 97 1008.4
20260506081045 53 0 0.0 0.9 0.00 0.25 0.08 97 1008.3
20260506080547 53 0 0.0 1.7 0.00 0.25 0.08 97 1008.3
20260506073058 54 0 0.0 1.7 0.00 0.25 0.08 97 1008.2
20260506072545 54 0 0.0 0.9 0.00 0.25 0.08 97 1008.1
20260506072045 54 0 0.0 1.7 0.00 0.25 0.08 97 1008.1
20260506071552 54 332 0.0 1.7 0.00 0.25 0.08 97 1008.2
20260506071045 55 0 0.0 0.9 0.00 0.25 0.08 97 1008.2
20260506070547 55 0 0.0 0.9 0.00 0.25 0.08 97 1008.3
20260506062047 55 0 0.0 0.9 0.00 0.25 0.08 97 1008.5
20260506061601 55 0 0.0 2.6 0.00 0.25 0.08 97 1008.4
20260506061047 55 306 0.0 2.6 0.00 0.25 0.08 97 1008.5
20260506060546 55 329 0.0 2.6 0.00 0.25 0.08 97 1008.4
20260506051047 55 0 0.0 1.7 0.05 0.25 0.08 97 1009.2
20260506050547 55 0 0.0 1.7 0.06 0.25 0.08 97 1008.9
20260506050108 55 0 0.0 2.6 0.07 0.25 0.08 97 1008.7
20260506045047 55 0 0.0 0.0 0.09 0.24 0.07 97 1008.7
20260506044558 55 0 0.0 0.0 0.09 0.24 0.07 97 1008.6
20260506044045 55 0 0.0 0.9 0.09 0.24 0.07 97 1008.5
20260506043544 55 0 0.0 1.7 0.09 0.24 0.07 97 1008.5
20260506043100 55 0 0.0 1.7 0.09 0.24 0.07 97 1008.7
20260506042546 55 0 0.9 1.7 0.09 0.24 0.07 97 1008.5
20260506042045 55 0 0.0 0.9 0.07 0.22 0.05 97 1008.5
20260506041552 55 315 0.0 0.9 0.05 0.20 0.03 97 1008.5
20260506041044 55 0 0.0 0.9 0.05 0.20 0.03 97 1008.3
20260506040545 55 0 0.0 0.9 0.04 0.19 0.02 97 1008.2
20260506040105 55 0 0.0 0.9 0.03 0.18 0.01 97 1008.2
20260506035544 55 0 0.0 0.9 0.01 0.16 0.16 97 1008.0
20260506035045 55 0 0.0 0.9 0.00 0.15 0.15 97 1008.1
20260506034605 55 0 0.0 1.7 0.00 0.15 0.15 97 1008.0
20260506034044 55 0 0.0 2.6 0.00 0.15 0.15 97 1008.0
20260506033546 55 315 0.9 2.6 0.00 0.15 0.15 97 1008.0
20260506033052 55 0 0.0 0.0 0.00 0.15 0.15 97 1007.9
20260506032545 55 0 0.0 0.0 0.00 0.15 0.15 97 1007.9
20260506032046 55 0 0.0 0.0 0.00 0.15 0.15 97 1007.8
20260506031554 55 0 0.0 0.0 0.00 0.15 0.15 97 1007.8
20260506031049 55 0 0.0 0.0 0.00 0.15 0.15 97 1007.8
20260506030545 55 0 0.0 0.0 0.00 0.15 0.15 97 1007.5
20260506030055 55 0 0.0 0.0 0.00 0.15 0.15 96 1007.5
20260506025544 55 0 0.0 0.0 0.00 0.15 0.15 96 1007.4
20260506025044 55 0 0.0 0.0 0.00 0.15 0.15 96 1007.5
20260506024557 55 0 0.0 0.0 0.00 0.15 0.15 96 1007.4
20260506024045 55 0 0.0 0.0 0.00 0.15 0.15 96 1007.6
20260506023546 55 0 0.0 0.0 0.00 0.15 0.15 96 1007.4
20260506023051 55 0 0.0 0.0 0.00 0.15 0.15 96 1007.4
20260506022544 55 0 0.0 0.0 0.00 0.15 0.15 96 1007.3
20260506022044 55 0 0.0 0.0 0.00 0.15 0.15 96 1007.4
20260506021602 55 0 0.0 0.0 0.00 0.15 0.15 96 1007.7
20260506021047 55 0 0.0 0.0 0.00 0.15 0.15 96 1007.7
20260506020545 55 0 0.0 0.0 0.00 0.15 0.15 96 1007.6
20260506020051 55 0 0.0 0.0 0.00 0.15 0.15 96 1007.5
20260506015547 54 0 0.0 1.7 0.00 0.15 0.15 96 1007.6
20260506015046 54 0 0.0 1.7 0.00 0.15 0.15 96 1007.5
20260506014555 54 206 0.0 1.7 0.00 0.15 0.15 96 1007.2
20260506014046 54 0 0.0 1.7 0.00 0.15 0.15 96 1007.0
20260506013545 54 311 0.0 1.7 0.00 0.15 0.15 96 1007.1
20260506013059 54 311 0.9 1.7 0.00 0.15 0.15 96 1007.0
20260506012545 54 0 0.0 1.7 0.00 0.15 0.15 96 1007.0
20260506012049 54 0 0.0 1.7 0.00 0.15 0.15 95 1007.1
20260506011603 55 236 0.0 0.9 0.00 0.15 0.15 95 1007.0
20260506011044 55 0 0.0 0.9 0.00 0.15 0.15 95 1007.0
20260506010544 55 0 0.0 1.7 0.00 0.15 0.15 95 1006.9
20260506010053 55 0 0.0 1.7 0.00 0.15 0.15 95 1006.9
20260506005547 55 236 0.0 1.7 0.00 0.15 0.15 95 1006.7
20260506005047 56 0 0.0 1.7 0.01 0.15 0.15 95 1006.6
20260506004550 56 0 0.0 1.7 0.01 0.15 0.15 95 1006.6
20260506004046 56 236 0.0 1.7 0.01 0.15 0.15 95 1006.7
20260506003545 57 0 0.0 1.7 0.01 0.15 0.15 95 1006.7
20260506003052 57 0 0.0 1.7 0.01 0.15 0.15 95 1006.7
20260506002545 57 0 0.0 1.7 0.01 0.15 0.15 95 1006.5
20260506002045 58 236 0.0 0.9 0.01 0.15 0.15 95 1006.4
20260506001554 58 0 0.0 0.9 0.01 0.15 0.15 95 1006.6
20260506001048 58 0 0.0 0.9 0.01 0.15 0.15 95 1006.5
20260506000548 58 0 0.0 1.7 0.01 0.15 0.15 94 1006.3
20260506000051 58 0 0.0 1.7 0.01 0.15 0.15 94 1006.4
20260505235548 58 0 0.9 1.7 0.01 0.15 0.15 94 1006.4
20260505235045 58 0 0.0 1.7 0.00 0.14 0.14 94 1006.4
20260505234606 58 279 0.0 1.7 0.00 0.14 0.14 94 1006.7
20260505234047 58 0 0.0 1.7 0.00 0.14 0.14 94 1006.6
20260505233547 59 0 0.0 1.7 0.00 0.14 0.14 94 1006.7
20260505233054 58 0 0.0 1.7 0.00 0.14 0.14 94 1006.7
20260505232547 58 307 0.0 2.6 0.00 0.14 0.14 94 1006.6
20260505232047 59 0 0.0 2.6 0.00 0.14 0.14 93 1006.7
20260505231605 59 307 0.0 2.6 0.00 0.14 0.14 93 1006.5
20260505231045 59 307 0.9 2.6 0.00 0.14 0.14 93 1006.5
20260505230545 59 261 0.0 1.7 0.00 0.14 0.14 93 1006.2
20260505230054 59 0 0.0 0.9 0.00 0.14 0.14 93 1006.3
20260505225547 59 0 0.0 1.7 0.00 0.14 0.14 92 1006.2
20260505225047 60 242 0.0 1.7 0.00 0.14 0.14 92 1006.2
20260505224554 60 0 0.0 3.5 0.00 0.14 0.14 92 1006.1
20260505224050 60 309 0.9 3.5 0.00 0.14 0.14 92 1005.9
20260505223546 60 309 1.7 3.5 0.00 0.14 0.14 91 1005.5
20260505223103 60 162 0.0 2.6 0.00 0.14 0.14 90 1005.3
20260505222548 61 162 0.0 2.6 0.00 0.14 0.14 89 1005.4
20260505222051 61 265 0.0 3.5 0.00 0.14 0.14 88 1005.5
20260505221558 62 273 0.9 8.7 0.00 0.14 0.14 86 1005.6
20260505221048 62 286 0.9 8.7 0.00 0.14 0.14 86 1005.6
20260505220546 61 145 0.9 4.3 0.00 0.14 0.14 89 1005.7
20260505220054 62 268 0.9 4.3 0.00 0.14 0.14 89 1005.8
20260505215547 61 168 0.9 5.2 0.00 0.14 0.14 92 1005.7
20260505215047 61 0 0.9 5.2 0.00 0.14 0.14 93 1005.6
20260505214614 62 239 0.9 5.2 0.00 0.14 0.14 93 1005.6
20260505214046 62 213 0.9 2.6 0.00 0.14 0.14 92 1005.8
20260505213545 62 0 0.0 1.7 0.00 0.14 0.14 92 1005.6
20260505213057 63 0 0.0 1.7 0.01 0.14 0.14 92 1005.4
20260505212545 63 0 0.0 1.7 0.01 0.14 0.14 92 1005.1